Weather reports worldwide

Advertisment
Haparanda A, Sweden (2197): temperature & dewpoint: 06.12.2019 17:00:00 - 12.12.2019 17:00:00 (CET)Haparanda A, Sweden (2197): wind speed & gusts: 06.12.2019 17:00:00 - 12.12.2019 17:00:00 (CET)Haparanda A, Sweden (2197): wind direction: 06.12.2019 17:00:00 - 12.12.2019 17:00:00 (CET)Haparanda A, Sweden (2197): reduced air pressure: 06.12.2019 17:00:00 - 12.12.2019 17:00:00 (CET)Haparanda A, Sweden (2197): visibility: 06.12.2019 17:00:00 - 12.12.2019 17:00:00 (CET)Haparanda A, Sweden (2197): precipitation: 06.12.2019 17:00:00 - 12.12.2019 17:00:00 (CET)
Date & Time tt [°C] td [°C] ff [km/h] ff [kn] fx [km/h] fx [kn] dd ppp [hPa] vv [km] rr [mm]
12.12.2019 17:00:00 1,2 1,0 11 6 32 18 S 997,3 4,4 0,0
12.12.2019 16:00:00 1,6 1,5 12 7 28 15 S 997,4 4,6 0,3
12.12.2019 15:00:00 1,7 1,6 11 6 28 15 S 997,6 10 0,0
12.12.2019 14:00:00 1,9 1,6 13 7 33 18 S 997,6 6 0,1
12.12.2019 13:00:00 1,9 1,6 13 7 28 15 S 997,7 5 0,1
12.12.2019 12:00:00 1,9 1,6 13 7 30 16 S 997,6 10 0,0
12.12.2019 11:00:00 1,9 1,6 13 7 32 18 S 997,8 9 0,0
12.12.2019 10:00:00 1,9 1,8 12 6 31 17 S 997,8 8 0,0
12.12.2019 09:00:00 1,8 1,7 13 7 30 16 S 997,8 5 0,1
12.12.2019 08:00:00 1,8 1,5 14 7 31 17 S 997,6 6 0,1
12.12.2019 07:00:00 2,0 1,7 13 7 27 15 S 997,5 5 0,0
12.12.2019 06:00:00 2,0 1,7 13 7 31 17 S 997,4 11 0,1
12.12.2019 05:00:00 2,1 1,7 13 7 29 16 S 997,3 37 0,0
12.12.2019 04:00:00 2,2 1,8 12 7 32 17 S 997,5 47 0,0
12.12.2019 03:00:00 1,9 1,6 14 8 38 20 SSW 997,3 45 0,0
12.12.2019 02:00:00 2,1 2,0 16 9 34 19 SSW 997,2 50 0,0
12.12.2019 01:00:00 1,9 1,8 14 8 28 15 SSW 997,2 50 0,0
12.12.2019 00:00:00 1,5 1,4 10 6 27 15 SSW 996,8 46 0,0
11.12.2019 23:00:00 1,1 1,0 11 6 22 12 S 996,9 37 0,0
11.12.2019 22:00:00 1,0 0,9 10 5 24 13 SSW 996,1 50 0,0
11.12.2019 21:00:00 1,1 1,0 11 6 29 16 SW 995,1 50 0,0
11.12.2019 20:00:00 0,8 0,7 12 6 34 19 SW 993,9 50 0,0
11.12.2019 19:00:00 1,0 0,9 13 7 33 18 SSW 992,4 50 0,0
11.12.2019 18:00:00 0,8 0,7 16 8 36 19 SW 991,3 49 0,4
11.12.2019 17:00:00 0,1 0,0 17 9 51 28 S 990,7 1,3 2,4
11.12.2019 16:00:00 0,0 -0,1 22 12 51 27 S 990,5 0,6 1,4
11.12.2019 15:00:00 -0,3 -0,4 23 12 56 30 S 990,8 0,7 0,6
11.12.2019 14:00:00 -0,2 -0,3 24 13 55 30 S 991,6 1,3 0,2
11.12.2019 13:00:00 -0,5 -0,6 26 14 56 30 S 992,4 3,0 0,1
11.12.2019 12:00:00 -0,9 -1,0 23 12 51 27 SSE 993,5 3,5 0,6
11.12.2019 11:00:00 -1,8 -2,1 23 13 52 28 SSE 994,8 0,6 1,7
11.12.2019 10:00:00 -2,5 -2,8 21 12 49 26 SSE 996,3 0,6 0,7
11.12.2019 09:00:00 -3,3 -3,7 21 11 48 26 SSE 998,1 1,6 2,0
11.12.2019 08:00:00 -3,1 -3,5 20 11 48 26 SE 999,2 0,5 1,2
11.12.2019 07:00:00 -3,3 -3,8 17 9 46 25 SSE 1001,0 0,4 0,8
11.12.2019 06:00:00 -2,6 -3,1 18 10 41 22 SSE 1002,3 1,8 0,4
11.12.2019 05:00:00 -2,1 -2,7 14 8 42 23 SSE 1003,8 12 0,0
11.12.2019 04:00:00 -2,0 -2,6 16 9 32 18 SSE 1004,7 36 0,0
11.12.2019 03:00:00 -5,6 -6,1 7 4 18 10 ESE 1005,8 45 0,0
11.12.2019 02:00:00 -13,0 -14,6 6 3 11 6 E 1006,9 40 0,0
11.12.2019 01:00:00 -14,8 -16,5 4 2 9 5 NE 1007,6 45 0,0
11.12.2019 00:00:00 -15,7 -17,6 3 2 10 6 E 1008,2 8 0,0
10.12.2019 23:00:00 -16,6 -18,4 6 3 7 4 ENE 1008,7 30 0,0
10.12.2019 22:00:00 -17,6 -19,8 4 2 8 4 NNE 1009,3 26 0,0
10.12.2019 21:00:00 -17,6 -19,6 3 2 7 4 ENE 1009,4 20 0,0
10.12.2019 20:00:00 -17,7 -19,9 4 2 - - ENE 1009,2 46 0,0
10.12.2019 19:00:00 -17,2 -19,3 2 1 6 3 SE 1009,2 50 0,0
10.12.2019 18:00:00 -16,5 -18,6 4 2 6 3 E 1009,5 50 0,0
10.12.2019 17:00:00 -15,7 -17,6 0 0 7 4 N 1009,4 50 0,0
10.12.2019 16:00:00 -14,9 -16,7 5 3 8 4 SW 1008,9 50 0,0
10.12.2019 15:00:00 -14,7 -16,5 4 2 7 4 S 1008,4 50 0,0
10.12.2019 14:00:00 -13,5 -15,3 2 1 9 5 NNW 1007,7 50 0,0
10.12.2019 13:00:00 -12,5 -14,1 5 3 10 6 NW 1007,2 50 0,0
10.12.2019 12:00:00 -12,4 -13,8 5 3 9 5 W 1006,2 50 0,0
10.12.2019 11:00:00 -12,0 -13,6 4 2 10 5 NW 1005,4 50 0,0
10.12.2019 10:00:00 -11,7 -13,1 6 3 11 6 WNW 1004,7 50 0,0
10.12.2019 09:00:00 -12,7 -14,3 5 3 9 5 NNW 1003,3 50 0,0
10.12.2019 08:00:00 -12,3 -13,9 5 3 10 5 NW 1002,2 50 0,0
10.12.2019 07:00:00 -11,3 -12,7 6 4 11 6 NW 1001,2 50 0,0
10.12.2019 06:00:00 -9,9 -11,4 6 3 13 7 NNW 999,7 50 0,0
10.12.2019 05:00:00 -10,6 -11,9 6 4 11 6 NW 998,6 50 0,0
10.12.2019 04:00:00 -12,3 -13,9 6 4 13 7 NW 997,3 50 0,0
10.12.2019 03:00:00 -11,8 -13,5 7 4 14 8 NNW 995,9 50 0,0
10.12.2019 02:00:00 -11,5 -13,4 8 4 16 9 NNW 994,6 50 0,0
10.12.2019 01:00:00 -10,4 -12,4 6 4 14 8 NNW 993,2 50 0,0
10.12.2019 00:00:00 -8,8 -10,6 8 4 18 10 NNW 991,9 50 0,0
09.12.2019 23:00:00 -7,1 -8,6 7 4 23 13 NNW 990,6 50 0,0
09.12.2019 22:00:00 -7,1 -8,3 9 5 19 10 NNW 988,8 50 0,0
09.12.2019 21:00:00 -8,0 -9,3 9 5 20 11 NW 987,3 50 0,0
09.12.2019 20:00:00 -7,2 -8,3 9 5 18 10 NNW 985,9 50 0,0
09.12.2019 19:00:00 -8,3 -9,5 6 4 16 9 NW 984,5 50 0,0
09.12.2019 18:00:00 -7,1 -8,3 9 5 22 12 NNW 983,0 50 0,0
09.12.2019 17:00:00 -6,4 -7,6 10 6 25 13 NNW 981,6 14 0,0
09.12.2019 16:00:00 -5,7 -6,8 11 6 26 14 NNW 980,5 6 0,0
09.12.2019 15:00:00 -5,5 -6,6 14 8 29 15 N 979,1 8 0,1
09.12.2019 14:00:00 -5,0 -6,0 11 6 28 15 N 977,9 8 0,1
09.12.2019 13:00:00 -4,8 -5,8 15 8 29 16 N 976,8 1,7 0,3
09.12.2019 12:00:00 -4,9 -5,9 14 7 32 18 N 975,6 2,9 0,2
09.12.2019 11:00:00 -4,8 -5,6 16 9 32 17 N 974,5 4,4 0,0
09.12.2019 10:00:00 -4,9 -5,9 15 8 31 17 N 973,8 50 0,0
09.12.2019 09:00:00 -5,2 -6,0 14 8 34 19 N 973,2 16 0,0
09.12.2019 08:00:00 -5,9 -6,7 15 8 - - N 972,5 50 0,0
09.12.2019 07:00:00 -6,3 -7,2 13 7 29 15 N 972,3 50 0,0
09.12.2019 06:00:00 -6,2 -7,1 12 7 27 14 NNE 972,4 50 0,0
09.12.2019 05:00:00 -6,1 -6,9 12 7 29 16 NNE 972,8 50 0,0
09.12.2019 04:00:00 -6,3 -7,1 13 7 25 14 NNE 973,4 50 0,0
09.12.2019 03:00:00 -6,6 -7,4 12 6 28 15 NE 974,4 42 0,0
09.12.2019 02:00:00 -6,7 -7,5 11 6 25 13 NE 975,1 50 0,0
09.12.2019 01:00:00 -6,8 -7,7 11 6 22 12 NE 975,7 50 0,0
09.12.2019 00:00:00 -6,9 -7,8 10 5 18 10 NE 976,5 50 0,0
08.12.2019 23:00:00 -7,1 -8,0 8 4 16 9 NE 977,3 14 0,0
08.12.2019 22:00:00 -7,2 -8,1 6 3 11 6 ENE 978,5 28 0,0
08.12.2019 21:00:00 -7,3 -8,2 5 3 13 7 ENE 978,3 40 0,0
08.12.2019 20:00:00 -7,2 -8,1 2 1 7 4 E 979,0 11 0,0
08.12.2019 19:00:00 -7,3 -8,2 3 2 8 4 NE 979,3 10 0,0
08.12.2019 18:00:00 -7,7 -8,6 3 1 6 3 S 979,7 12 0,0
08.12.2019 17:00:00 -8,0 -9,1 0 0 6 3 N 979,5 16 0,0
08.12.2019 16:00:00 -8,1 -9,2 3 2 7 4 N 979,4 36 0,0
08.12.2019 15:00:00 -8,4 -9,5 4 2 9 5 WNW 979,8 18 0,0
08.12.2019 14:00:00 -9,1 -10,2 4 2 13 7 WNW 979,7 21 0,0
08.12.2019 13:00:00 -9,8 -11,1 5 3 - - W 979,8 50 0,0
08.12.2019 12:00:00 -9,3 -10,6 6 3 12 7 NW 979,3 50 0,0
08.12.2019 11:00:00 -9,0 -10,3 5 3 13 7 WNW 979,2 50 0,0
08.12.2019 10:00:00 -8,5 -9,6 5 3 16 9 NW 979,2 50 0,0
08.12.2019 09:00:00 -8,6 -9,7 7 4 18 10 NNW 979,0 50 0,0
08.12.2019 08:00:00 -8,2 -9,3 6 3 16 9 NNW 979,0 50 0,0
08.12.2019 07:00:00 -7,9 -8,8 9 5 19 10 NNW 979,0 45 0,0
08.12.2019 06:00:00 -6,9 -7,7 7 4 17 9 NNW 978,3 42 0,0
08.12.2019 05:00:00 -5,7 -6,4 7 4 16 9 N 978,3 5 0,0
08.12.2019 04:00:00 -3,7 -4,2 6 3 13 7 NNW 978,0 8 0,0
08.12.2019 03:00:00 -2,5 -2,9 4 2 10 5 NW 978,2 1,7 0,0
08.12.2019 02:00:00 -2,5 -2,9 4 2 8 5 WNW 978,2 16 0,0
08.12.2019 01:00:00 -2,4 -2,8 3 2 5 3 SE 978,0 50 0,0
08.12.2019 00:00:00 -1,5 -1,8 3 1 7 4 W 978,6 47 0,0
07.12.2019 23:00:00 -1,4 -1,8 4 2 9 5 SE 978,6 50 0,0
07.12.2019 22:00:00 -1,2 -1,5 4 2 8 5 SE 978,8 50 0,0
07.12.2019 21:00:00 -1,4 -1,7 3 2 8 5 SE 979,3 50 0,0
07.12.2019 20:00:00 -1,6 -1,9 5 3 12 7 SSE 979,4 50 0,0
07.12.2019 19:00:00 -1,3 -1,6 6 4 14 8 S 979,8 50 0,0
07.12.2019 18:00:00 -0,8 -1,1 5 3 14 8 S 980,0 49 0,0
07.12.2019 17:00:00 -0,9 -1,2 6 3 16 9 S 980,3 50 0,0
07.12.2019 16:00:00 -3,6 -4,1 6 4 12 6 S 980,7 50 0,0
07.12.2019 15:00:00 -3,2 -3,6 5 3 11 6 SSE 980,9 50 0,0
07.12.2019 14:00:00 -3,5 -3,9 6 3 10 6 SSE 981,0 50 0,0
07.12.2019 13:00:00 -4,6 -5,3 6 3 11 6 S 981,2 50 0,0
07.12.2019 12:00:00 -4,5 -5,2 4 2 12 6 SE 981,5 50 0,0
07.12.2019 11:00:00 -4,8 -5,3 5 3 10 5 S 981,9 50 0,0
07.12.2019 10:00:00 -5,2 -5,9 4 2 9 5 SSE 982,0 50 0,0
07.12.2019 09:00:00 -5,4 -6,1 5 3 8 5 SSE 982,1 50 0,0
07.12.2019 08:00:00 -3,6 -4,0 6 4 13 7 SSW 981,5 50 0,0
07.12.2019 07:00:00 -4,8 -5,3 6 4 10 5 SSW 981,6 50 0,0
07.12.2019 06:00:00 -4,5 -5,0 5 3 10 5 SSE 981,3 50 0,0
07.12.2019 05:00:00 -3,9 -4,3 5 3 11 6 S 981,2 50 0,0
07.12.2019 04:00:00 -4,3 -4,8 5 3 9 5 S 981,2 50 0,0
07.12.2019 03:00:00 -3,7 -4,1 6 3 13 7 S 981,4 50 0,0
07.12.2019 02:00:00 -2,9 -3,3 6 3 12 7 SSE 981,3 50 0,0
07.12.2019 01:00:00 -2,6 -3,0 7 4 15 8 S 981,2 50 0,0
07.12.2019 00:00:00 -2,0 -2,4 6 3 15 8 S 980,9 50 0,0
06.12.2019 23:00:00 -3,6 -4,1 7 4 13 7 S 980,8 50 0,0
06.12.2019 22:00:00 -6,4 -7,3 6 3 - - SSW 980,9 27 0,0
06.12.2019 21:00:00 -5,8 -6,6 6 4 11 6 S 980,5 31 0,0
06.12.2019 20:00:00 -8,2 -9,4 3 2 8 5 ESE 980,4 16 0,0
06.12.2019 19:00:00 -7,0 -7,8 4 2 8 4 SE 980,3 39 0,0
06.12.2019 18:00:00 -7,3 -8,1 5 3 8 5 SSE 980,3 50 0,0
06.12.2019 17:00:00 -6,9 -7,7 4 2 8 4 SSE 979,8 50 0,0

tt = temperature
td = dewpoint
ff = wind speed
fx = gusts
dd = wind direction
ppp = reduced air pressure
vv = visibility
rr = precipitation

Next stations